Surface/Precipitation History
07/04/2015 15:05  to  7/5/2015 15:05
Change End Date:
Date/Time
(MDT)
Sf
Temp Chem Water Layer Surface Precipitation
Sfc Pvt Sub Frz Factor Pct Dpth DpthThk IcePct Cond Salin FI Type Intens Accum Rate
07/05/2015 15:04 Wet 59.0F - 81F 32F 5 0% 0.00 in - 0% 0 mhos 8 - Yes - - -
07/05/2015 14:55 Wet 58.6F - 81F 32F 5 0% 0.00 in - 0% 0 mhos 9 - Yes - - -
07/05/2015 14:49 Wet 58.6F - 81F 32F 5 0% 0.00 in - 0% 0 mhos 9 - Yes - - -
07/05/2015 14:45 Wet 59.2F - 81F 32F 5 0% 0.00 in - 0% 0 mhos 7 - Yes - - -
07/05/2015 14:35 Wet 60.4F - 81F 32F 5 0% 0.00 in - 0% 0 mhos 3 - Yes - - -
07/05/2015 14:34 Wet 60.4F - 81F 32F 5 0% 0.00 in - 0% 0 mhos 3 - Yes - - -
07/05/2015 14:25 Wet 60.3F - 82F 32F 5 0% 0.00 in - 0% 0 mhos 1 - Yes - - -
07/05/2015 14:19 Wet 61.0F - 82F 32F 5 0% 0.00 in - 0% 0 mhos 0 - Yes - - -
07/05/2015 14:15 Wet 61.0F - 82F 32F 5 0% 0.00 in - 0% 0 mhos 0 - Yes - - -
07/05/2015 14:05 Dry 62.4F - 82F - - - - - - 0 mhos 0 - Yes - - -
07/05/2015 14:04 Dry 62.4F - 82F - - - - - - 0 mhos 0 - Yes - - -
07/05/2015 13:55 Dry 62.6F - 82F - - - - - - 0 mhos 0 - Yes - - -
07/05/2015 13:49 Dry 63.1F - 82F - - - - - - 0 mhos 0 - Yes - - -
07/05/2015 13:45 Dry 63.3F - 82F - - - - - - 0 mhos 0 - Yes - - -
07/05/2015 13:35 Dry 63.3F - 82F - - - - - - 0 mhos 0 - None None - -
Date/Time
(MDT)
Sf
Temp Chem Water Layer Surface Precipitation
Sfc Pvt Sub Frz Factor Pct Dpth DpthThk IcePct Cond Salin FI Type Intens Accum Rate
07/05/2015 13:34 Dry 63.3F - 82F - - - - - - 0 mhos 0 - None None - -
07/05/2015 13:25 Dry 63.3F - 82F - - - - - - 0 mhos 0 - None None - -
07/05/2015 13:19 Dry 63.0F - 82F - - - - - - 0 mhos 0 - None None - -
07/05/2015 13:15 Dry 63.0F - 82F - - - - - - 0 mhos 0 - None None - -
07/05/2015 13:05 Dry 62.4F - 82F - - - - - - 0 mhos 0 - None None - -
07/05/2015 13:04 Dry 62.4F - 82F - - - - - - 0 mhos 0 - None None - -
07/05/2015 12:55 Dry 61.9F - 82F - - - - - - 0 mhos 0 - None None - -
07/05/2015 12:49 Dry 61.3F - 82F - - - - - - 0 mhos 0 - None None - -
07/05/2015 12:45 Dry 61.0F - 82F - - - - - - 0 mhos 0 - Yes - - -
07/05/2015 12:35 Dry 60.6F - 82F - - - - - - 0 mhos 0 - Yes - - -
07/05/2015 12:34 Dry 60.6F - 82F - - - - - - 0 mhos 0 - Yes - - -
07/05/2015 12:25 Dry 61.0F - 82F - - - - - - 0 mhos 0 - Yes - - -
07/05/2015 12:19 Dry 61.0F - 82F - - - - - - 0 mhos 0 - Yes - - -
07/05/2015 12:15 Dry 61.0F - 83F - - - - - - 0 mhos 0 - Yes - - -
07/05/2015 12:04 Dry 61.5F - 83F - - - - - - 0 mhos 0 - Yes - - -
Date/Time
(MDT)
Sf
Temp Chem Water Layer Surface Precipitation
Sfc Pvt Sub Frz Factor Pct Dpth DpthThk IcePct Cond Salin FI Type Intens Accum Rate
07/05/2015 12:04 Dry 61.5F - 83F - - - - - - 0 mhos 0 - Yes - - -
07/05/2015 11:54 Dry 62.6F - 83F - - - - - - 0 mhos 0 - None None - -
07/05/2015 11:49 Dry 62.8F - 83F - - - - - - 0 mhos 0 - None None - -
07/05/2015 11:44 Dry 62.1F - 83F - - - - - - 0 mhos 0 - None None - -
07/05/2015 11:34 Dry 61.0F - 83F - - - - - - 0 mhos 1 - None None - -
07/05/2015 11:34 Dry 61.0F - 83F - - - - - - 0 mhos 1 - None None - -
07/05/2015 11:24 Dry 61.5F - 83F - - - - - - 0 mhos 4 - None None - -
07/05/2015 11:19 Wet 62.2F - 83F 32F 5 0% 0.00 in - 0% 0 mhos 5 - None None - -
07/05/2015 11:14 Wet 62.6F - 83F 32F 5 0% 0.00 in - 0% 0 mhos 6 - None None - -
07/05/2015 11:04 Wet 64.2F - 83F 32F 5 0% 0.00 in - 0% 0 mhos 8 - None None - -
07/05/2015 11:04 Wet 64.2F - 83F 32F 5 0% 0.00 in - 0% 0 mhos 8 - None None - -
07/05/2015 10:54 Wet 63.3F - 83F 32F 5 0% 0.00 in - 0% 0 mhos 9 - None None - -
07/05/2015 10:49 Wet 63.0F - 83F 32F 5 0% 0.00 in - 0% 0 mhos 9 - None None - -
07/05/2015 10:44 Wet 62.2F - 83F 32F 5 0% 0.00 in - 0% 0 mhos 8 - None None - -
07/05/2015 10:34 Wet 61.9F - 83F 32F 5 0% 0.00 in - 0% 0 mhos 7 - None None - -
Date/Time
(MDT)
Sf
Temp Chem Water Layer Surface Precipitation
Sfc Pvt Sub Frz Factor Pct Dpth DpthThk IcePct Cond Salin FI Type Intens Accum Rate
07/05/2015 10:34 Wet 61.9F - 83F 32F 5 0% 0.00 in - 0% 0 mhos 7 - None None - -
07/05/2015 10:24 Wet 61.0F - 83F 32F 5 0% 0.00 in - 0% 0 mhos 6 - Yes - - -
07/05/2015 10:19 Wet 60.4F - 83F 32F 5 0% 0.00 in - 0% 0 mhos 6 - Yes - - -
07/05/2015 10:14 Wet 60.3F - 84F 32F 5 0% 0.00 in - 0% 0 mhos 6 - Yes - - -
07/05/2015 10:04 Wet 60.4F - 84F 32F 5 0% 0.00 in - 0% 0 mhos 7 - Yes - - -
07/05/2015 10:04 Wet 60.4F - 84F 32F 5 0% 0.00 in - 0% 0 mhos 7 - Yes - - -
07/05/2015 09:54 Wet 60.4F - 84F 32F 5 0% 0.00 in - 0% 0 mhos 6 - Yes - - -
07/05/2015 09:49 Wet 60.8F - 84F 32F 5 0% 0.00 in - 0% 0 mhos 6 - Yes - - -
07/05/2015 09:44 Wet 60.8F - 84F 32F 5 0% 0.00 in - 0% 0 mhos 5 - Yes - - -
07/05/2015 09:34 Wet 61.0F - 84F 32F 5 0% 0.00 in - 0% 0 mhos 7 - Yes - - -
07/05/2015 09:34 Wet 61.0F - 84F 32F 5 0% 0.00 in - 0% 0 mhos 7 - Yes - - -
07/05/2015 09:24 Wet 61.7F - 84F 32F 5 0% 0.00 in - 0% 0 mhos 9 - Yes - - -
07/05/2015 09:19 Wet 62.1F - 84F 32F 5 0% 0.00 in - 0% 0 mhos 9 - Yes - - -
07/05/2015 09:14 Wet 62.1F - 84F 32F 5 0% 0.00 in - 0% 0 mhos 8 - Yes - - -
07/05/2015 09:04 Wet 62.1F - 84F 32F 5 0% 0.00 in - 0% 0 mhos 7 - Yes - - -
Date/Time
(MDT)
Sf
Temp Chem Water Layer Surface Precipitation
Sfc Pvt Sub Frz Factor Pct Dpth DpthThk IcePct Cond Salin FI Type Intens Accum Rate
07/05/2015 09:04 Wet 62.1F - 84F 32F 5 0% 0.00 in - 0% 0 mhos 7 - Yes - - -
07/05/2015 08:54 Wet 62.2F - 84F 32F 5 0% 0.00 in - 0% 0 mhos 0 - Yes - - -
07/05/2015 08:49 Wet 62.2F - 84F 32F 5 0% 0.00 in - 0% 0 mhos 0 - Yes - - -
07/05/2015 08:44 Wet 62.4F - 84F 32F 5 0% 0.00 in - 0% 0 mhos 0 - Yes - - -
07/05/2015 08:34 Dry 62.4F - 84F - - - - - - 0 mhos 0 - None None - -
07/05/2015 08:34 Dry 62.4F - 84F - - - - - - 0 mhos 0 - None None - -
07/05/2015 08:24 Dry 62.6F - 84F - - - - - - 0 mhos 1 - None None - -
07/05/2015 08:19 Dry 63.1F - 85F - - - - - - 0 mhos 4 - None None - -
07/05/2015 08:14 Dry 63.3F - 85F - - - - - - 0 mhos 5 - None None - -
07/05/2015 08:04 Wet 62.8F - 85F 32F 5 0% 0.00 in - 0% 0 mhos 6 - None None - -
07/05/2015 08:04 Wet 62.8F - 85F 32F 5 0% 0.00 in - 0% 0 mhos 6 - None None - -
07/05/2015 07:54 Wet 62.4F - 85F 32F 5 0% 0.00 in - 0% 0 mhos 9 - None None - -
07/05/2015 07:49 Wet 62.8F - 85F 32F 5 0% 0.00 in - 0% 0 mhos 9 - None None - -
07/05/2015 07:44 Wet 62.8F - 85F 32F 5 0% 0.00 in - 0% 0 mhos 10 - None None - -
07/05/2015 07:34 Wet 62.4F - 85F 32F 5 0% 0.00 in - 0% 0 mhos 10 - Yes - - -
Date/Time
(MDT)
Sf
Temp Chem Water Layer Surface Precipitation
Sfc Pvt Sub Frz Factor Pct Dpth DpthThk IcePct Cond Salin FI Type Intens Accum Rate
07/05/2015 07:34 Wet 62.4F - 85F 32F 5 0% 0.00 in - 0% 0 mhos 10 - Yes - - -
07/05/2015 07:24 Wet 63.0F - 85F 32F 5 0% 0.00 in - 0% 0 mhos 10 - None None - -
07/05/2015 07:19 Wet 63.0F - 85F 32F 5 0% 0.00 in - 0% 0 mhos 9 - None None - -
07/05/2015 07:14 Wet 63.1F - 85F 32F 5 0% 0.00 in - 0% 0 mhos 8 - None None - -
07/05/2015 07:04 Wet 63.3F - 85F 32F 5 0% 0.00 in - 0% 0 mhos 14 - None None - -
07/05/2015 07:04 Wet 63.3F - 85F 32F 5 0% 0.00 in - 0% 0 mhos 14 - None None - -
07/05/2015 06:54 Wet 63.3F - 85F 32F 5 0% 0.00 in - 0% 0 mhos 14 - None None - -
07/05/2015 06:49 Wet 63.3F - 85F 32F 5 0% 0.00 in - 0% 0 mhos 14 - None None - -
07/05/2015 06:44 Wet 63.3F - 85F 32F 5 0% 0.00 in - 0% 0 mhos 14 - None None - -
07/05/2015 06:34 Wet 63.3F - 85F 32F 5 0% 0.00 in - 0% 0 mhos 14 - Yes - - -
07/05/2015 06:33 Wet 63.3F - 85F 32F 5 0% 0.00 in - 0% 0 mhos 14 - Yes - - -
07/05/2015 06:23 Wet 63.5F - 85F 32F 5 0% 0.00 in - 0% 0 mhos 12 - Yes - - -
07/05/2015 06:19 Wet 63.3F - 85F 32F 5 0% 0.00 in - 0% 0 mhos 11 - Yes - - -
07/05/2015 06:13 Wet 64.4F - 85F 32F 5 0% 0.00 in - 0% 1 mhos 36 - Yes - - -
07/05/2015 06:04 Wet 64.6F - 85F 32F 5 0% 0.00 in - 0% 1 mhos 38 - Yes - - -
Date/Time
(MDT)
Sf
Temp Chem Water Layer Surface Precipitation
Sfc Pvt Sub Frz Factor Pct Dpth DpthThk IcePct Cond Salin FI Type Intens Accum Rate
07/05/2015 06:03 Wet 64.6F - 85F 32F 5 0% 0.00 in - 0% 1 mhos 38 - Yes - - -
07/05/2015 05:53 Wet 65.3F - 85F 32F 5 0% 0.00 in - 0% 1 mhos 45 - Yes - - -
07/05/2015 05:49 Wet 65.7F - 85F 32F 5 0% 0.00 in - 0% 0 mhos 21 - Yes - - -
07/05/2015 05:43 Wet 66.2F - 86F 32F 5 0% 0.00 in - 0% 1 mhos 46 - Yes - - -
07/05/2015 05:34 Wet 66.7F - 86F 32F 5 0% 0.00 in - 0% 0 mhos 22 - Yes - - -
07/05/2015 05:33 Wet 66.7F - 86F 32F 5 0% 0.00 in - 0% 0 mhos 22 - Yes - - -
07/05/2015 05:23 Wet 68.0F - 86F 32F 5 0% 0.00 in - 0% 0 mhos 22 - Yes - - -
07/05/2015 05:20 Wet 68.0F - 86F 32F 5 0% 0.00 in - 0% 0 mhos 22 - Yes - - -
07/05/2015 05:13 Wet 68.0F - 86F 32F 5 0% 0.00 in - 0% 0 mhos 23 - Yes - - -
07/05/2015 05:05 Wet 68.2F - 86F 32F 5 0% 0.00 in - 0% 0 mhos 26 - Yes - - -
07/05/2015 05:03 Wet 68.4F - 86F 32F 5 0% 0.00 in - 0% 0 mhos 32 - Yes - - -
07/05/2015 04:53 Wet 68.5F - 86F 32F 5 0% 0.00 in - 0% 0 mhos 32 - Yes - - -
07/05/2015 04:50 Wet 68.5F - 86F 32F 5 0% 0.00 in - 0% 0 mhos 32 - Yes - - -
07/05/2015 04:43 Wet 68.7F - 86F 32F 5 0% 0.00 in - 0% 0 mhos 29 - Yes - - -
07/05/2015 04:35 Wet 68.7F - 86F 32F 5 0% 0.00 in - 0% 0 mhos 23 - Yes - - -
Date/Time
(MDT)
Sf
Temp Chem Water Layer Surface Precipitation
Sfc Pvt Sub Frz Factor Pct Dpth DpthThk IcePct Cond Salin FI Type Intens Accum Rate
07/05/2015 04:33 Wet 68.7F - 86F 32F 5 0% 0.00 in - 0% 0 mhos 18 - Yes - - -
07/05/2015 04:23 Wet 68.9F - 86F 32F 5 0% 0.00 in - 0% 0 mhos 2 - Yes - - -
07/05/2015 04:20 Wet 68.9F - 86F 32F 5 0% 0.00 in - 0% 0 mhos 2 - Yes - - -
07/05/2015 04:13 Wet 68.7F - 86F 32F 5 0% 0.00 in - 0% 0 mhos 2 - Yes - - -
07/05/2015 04:05 Wet 68.9F - 86F 32F 5 0% 0.00 in - 0% 0 mhos 0 - Yes - - -
07/05/2015 04:03 Wet 69.3F - 86F 32F 5 0% 0.00 in - 0% 0 mhos 0 - Yes - - -
07/05/2015 03:53 Dry 70.2F - 86F - - - - - - 0 mhos 0 - Yes - - -
07/05/2015 03:50 Dry 70.5F - 86F - - - - - - 0 mhos 0 - Yes - - -
07/05/2015 03:43 Dry 71.1F - 86F - - - - - - 0 mhos 0 - None None - -
07/05/2015 03:35 Dry 71.1F - 86F - - - - - - 0 mhos 0 - Yes - - -
07/05/2015 03:33 Dry 71.1F - 86F - - - - - - 0 mhos 0 - Yes - - -
07/05/2015 03:23 Dry 71.2F - 86F - - - - - - 0 mhos 0 - Yes - - -
07/05/2015 03:20 Dry 71.1F - 86F - - - - - - 0 mhos 0 - None None - -
07/05/2015 03:13 Dry 71.4F - 86F - - - - - - 0 mhos 0 - None None - -
07/05/2015 03:05 Dry 71.6F - 86F - - - - - - 0 mhos 0 - None None - -
Date/Time
(MDT)
Sf
Temp Chem Water Layer Surface Precipitation
Sfc Pvt Sub Frz Factor Pct Dpth DpthThk IcePct Cond Salin FI Type Intens Accum Rate
07/05/2015 03:03 Dry 71.6F - 86F - - - - - - 0 mhos 0 - None None - -
07/05/2015 02:53 Dry 72.0F - 86F - - - - - - 0 mhos 0 - None None - -
07/05/2015 02:50 Dry 72.0F - 86F - - - - - - 0 mhos 0 - None None - -
07/05/2015 02:43 Dry 72.0F - 86F - - - - - - 0 mhos 0 - None None - -
07/05/2015 02:35 Dry 72.0F - 86F - - - - - - 0 mhos 0 - None None - -
07/05/2015 02:33 Dry 72.0F - 86F - - - - - - 0 mhos 0 - None None - -
07/05/2015 02:23 Dry 72.1F - 87F - - - - - - 0 mhos 0 - None None - -
07/05/2015 02:20 Dry 72.1F - 87F - - - - - - 0 mhos 0 - None None - -
07/05/2015 02:13 Dry 72.3F - 87F - - - - - - 0 mhos 0 - None None - -
07/05/2015 02:05 Dry 72.7F - 87F - - - - - - 0 mhos 0 - None None - -
07/05/2015 02:03 Dry 72.9F - 87F - - - - - - 0 mhos 0 - None None - -
07/05/2015 01:53 Dry 73.2F - 87F - - - - - - 0 mhos 0 - None None - -
07/05/2015 01:50 Dry 73.4F - 87F - - - - - - 0 mhos 0 - None None - -
07/05/2015 01:43 Dry 74.1F - 87F - - - - - - 0 mhos 0 - None None - -
07/05/2015 01:35 Dry 74.8F - 87F - - - - - - 0 mhos 0 - None None - -
Date/Time
(MDT)
Sf
Temp Chem Water Layer Surface Precipitation
Sfc Pvt Sub Frz Factor Pct Dpth DpthThk IcePct Cond Salin FI Type Intens Accum Rate
07/05/2015 01:33 Dry 75.0F - 87F - - - - - - 0 mhos 0 - None None - -
07/05/2015 01:23 Dry 75.6F - 87F - - - - - - 0 mhos 0 - None None - -
07/05/2015 01:20 Dry 75.4F - 87F - - - - - - 0 mhos 0 - None None - -
07/05/2015 01:13 Dry 75.4F - 87F - - - - - - 0 mhos 0 - None None - -
07/05/2015 01:05 Dry 75.2F - 87F - - - - - - 0 mhos 0 - None None - -
07/05/2015 01:02 Dry 75.0F - 87F - - - - - - 0 mhos 0 - None None - -
07/05/2015 00:52 Dry 74.3F - 87F - - - - - - 0 mhos 0 - None None - -
07/05/2015 00:50 Dry 74.1F - 87F - - - - - - 0 mhos 0 - None None - -
07/05/2015 00:42 Dry 74.3F - 87F - - - - - - 0 mhos 0 - None None - -
07/05/2015 00:35 Dry 74.5F - 87F - - - - - - 0 mhos 0 - None None - -
07/05/2015 00:32 Dry 74.7F - 87F - - - - - - 0 mhos 0 - None None - -
07/05/2015 00:22 Dry 75.4F - 87F - - - - - - 0 mhos 0 - None None - -
07/05/2015 00:20 Dry 76.3F - 87F - - - - - - 0 mhos 0 - None None - -
07/05/2015 00:12 Dry 77.5F - 87F - - - - - - 0 mhos 0 - None None - -
07/05/2015 00:05 Dry 77.7F - 87F - - - - - - 0 mhos 0 - None None - -
Date/Time
(MDT)
Sf
Temp Chem Water Layer Surface Precipitation
Sfc Pvt Sub Frz Factor Pct Dpth DpthThk IcePct Cond Salin FI Type Intens Accum Rate
07/05/2015 00:02 Dry 78.3F - 87F - - - - - - 0 mhos 0 - None None - -
07/04/2015 23:52 Dry 79.2F - 87F - - - - - - 0 mhos 0 - None None - -
07/04/2015 23:50 Dry 79.3F - 87F - - - - - - 0 mhos 0 - None None - -
07/04/2015 23:42 Dry 79.5F - 86F - - - - - - 0 mhos 0 - None None - -
07/04/2015 23:35 Dry 80.2F - 86F - - - - - - 0 mhos 0 - None None - -
07/04/2015 23:32 Dry 80.4F - 86F - - - - - - 0 mhos 0 - None None - -
07/04/2015 23:22 Dry 81.0F - 86F - - - - - - 0 mhos 0 - None None - -
07/04/2015 23:20 Dry 81.3F - 86F - - - - - - 0 mhos 0 - None None - -
07/04/2015 23:12 Dry 81.7F - 86F - - - - - - 0 mhos 0 - None None - -
07/04/2015 23:05 Dry 81.9F - 86F - - - - - - 0 mhos 0 - None None - -
07/04/2015 23:02 Dry 82.0F - 86F - - - - - - 0 mhos 0 - None None - -
07/04/2015 22:52 Dry 82.4F - 86F - - - - - - 0 mhos 0 - None None - -
07/04/2015 22:50 Dry 82.6F - 86F - - - - - - 0 mhos 0 - None None - -
07/04/2015 22:42 Dry 82.8F - 86F - - - - - - 0 mhos 0 - None None - -
07/04/2015 22:35 Dry 83.1F - 86F - - - - - - 0 mhos 0 - None None - -
Date/Time
(MDT)
Sf
Temp Chem Water Layer Surface Precipitation
Sfc Pvt Sub Frz Factor Pct Dpth DpthThk IcePct Cond Salin FI Type Intens Accum Rate
07/04/2015 22:32 Dry 83.1F - 86F - - - - - - 0 mhos 0 - None None - -
07/04/2015 22:22 Dry 84.0F - 86F - - - - - - 0 mhos 0 - None None - -
07/04/2015 22:20 Dry 84.0F - 86F - - - - - - 0 mhos 0 - None None - -
07/04/2015 22:12 Dry 84.7F - 86F - - - - - - 0 mhos 0 - None None - -
07/04/2015 22:05 Dry 85.3F - 86F - - - - - - 0 mhos 0 - None None - -
07/04/2015 22:02 Dry 85.3F - 86F - - - - - - 0 mhos 0 - None None - -
07/04/2015 21:52 Dry 85.8F - 86F - - - - - - 0 mhos 0 - None None - -
07/04/2015 21:50 Dry 86.0F - 86F - - - - - - 0 mhos 0 - None None - -
07/04/2015 21:42 Dry 86.7F - 86F - - - - - - 0 mhos 0 - None None - -
07/04/2015 21:34 Dry 87.4F - 86F - - - - - - 0 mhos 0 - None None - -
07/04/2015 21:32 Dry 87.6F - 86F - - - - - - 0 mhos 0 - None None - -
07/04/2015 21:22 Dry 88.7F - 86F - - - - - - 0 mhos 0 - None None - -
07/04/2015 21:19 Dry 89.1F - 86F - - - - - - 0 mhos 0 - None None - -
07/04/2015 21:12 Dry 90.1F - 86F - - - - - - 0 mhos 0 - None None - -
07/04/2015 21:04 Dry 91.0F - 86F - - - - - - 0 mhos 0 - None None - -
Date/Time
(MDT)
Sf
Temp Chem Water Layer Surface Precipitation
Sfc Pvt Sub Frz Factor Pct Dpth DpthThk IcePct Cond Salin FI Type Intens Accum Rate
07/04/2015 21:02 Dry 91.4F - 86F - - - - - - 0 mhos 0 - None None - -
07/04/2015 20:52 Dry 92.7F - 85F - - - - - - 0 mhos 0 - None None - -
07/04/2015 20:49 Dry 92.8F - 85F - - - - - - 0 mhos 0 - None None - -
07/04/2015 20:42 Dry 93.7F - 85F - - - - - - 0 mhos 0 - None None - -
07/04/2015 20:34 Dry 94.6F - 85F - - - - - - 0 mhos 0 - None None - -
07/04/2015 20:32 Dry 95.4F - 85F - - - - - - 0 mhos 0 - None None - -
07/04/2015 20:21 Dry 96.6F - 85F - - - - - - 0 mhos 0 - None None - -
07/04/2015 20:20 Dry 96.8F - 85F - - - - - - 0 mhos 0 - None None - -
07/04/2015 20:11 Dry 97.9F - 85F - - - - - - 0 mhos 0 - None None - -
07/04/2015 20:04 Dry 98.8F - 85F - - - - - - 0 mhos 0 - None None - -
07/04/2015 20:01 Dry 99.5F - 85F - - - - - - 0 mhos 0 - None None - -
07/04/2015 19:51 Dry 100.6F - 85F - - - - - - 0 mhos 0 - None None - -
07/04/2015 19:49 Dry 100.6F - 85F - - - - - - 0 mhos 0 - None None - -
07/04/2015 19:41 Dry 101.1F - 85F - - - - - - 0 mhos 0 - None None - -
07/04/2015 19:34 Dry 101.3F - 85F - - - - - - 0 mhos 0 - None None - -
Date/Time
(MDT)
Sf
Temp Chem Water Layer Surface Precipitation
Sfc Pvt Sub Frz Factor Pct Dpth DpthThk IcePct Cond Salin FI Type Intens Accum Rate
07/04/2015 19:31 Dry 101.7F - 85F - - - - - - 0 mhos 0 - None None - -
07/04/2015 19:21 Dry 104.9F - 85F - - - - - - 0 mhos 0 - None None - -
07/04/2015 19:19 Dry 105.3F - 85F - - - - - - 0 mhos 0 - None None - -
07/04/2015 19:11 Dry 106.5F - 85F - - - - - - 0 mhos 0 - None None - -
07/04/2015 19:04 Dry 107.4F - 85F - - - - - - 0 mhos 0 - None None - -
07/04/2015 19:01 Dry 107.6F - 85F - - - - - - 0 mhos 0 - None None - -
07/04/2015 18:51 Dry 108.9F - 85F - - - - - - 0 mhos 0 - None None - -
07/04/2015 18:49 Dry 108.7F - 85F - - - - - - 0 mhos 0 - None None - -
07/04/2015 18:41 Dry 110.3F - 84F - - - - - - 0 mhos 0 - None None - -
07/04/2015 18:35 Dry 111.2F - 84F - - - - - - 0 mhos 0 - None None - -
07/04/2015 18:31 Dry 112.1F - 84F - - - - - - 0 mhos 0 - None None - -
07/04/2015 18:21 Dry 113.9F - 84F - - - - - - 0 mhos 0 - None None - -
07/04/2015 18:19 Dry 114.3F - 84F - - - - - - 0 mhos 0 - None None - -
07/04/2015 18:11 Dry 115.5F - 84F - - - - - - 0 mhos 0 - None None - -
07/04/2015 18:05 Dry 116.6F - 84F - - - - - - 0 mhos 0 - None None - -
Date/Time
(MDT)
Sf
Temp Chem Water Layer Surface Precipitation
Sfc Pvt Sub Frz Factor Pct Dpth DpthThk IcePct Cond Salin FI Type Intens Accum Rate
07/04/2015 18:01 Dry 117.1F - 84F - - - - - - 0 mhos 0 - None None - -
07/04/2015 17:51 Dry 119.1F - 84F - - - - - - 0 mhos 0 - None None - -
07/04/2015 17:49 Dry 119.1F - 84F - - - - - - 0 mhos 0 - None None - -
07/04/2015 17:41 Dry 119.5F - 84F - - - - - - 0 mhos 0 - None None - -
07/04/2015 17:35 Dry 120.2F - 84F - - - - - - 0 mhos 0 - None None - -
07/04/2015 17:31 Dry 120.0F - 84F - - - - - - 0 mhos 0 - None None - -
07/04/2015 17:21 Dry 120.0F - 84F - - - - - - 0 mhos 0 - None None - -
07/04/2015 17:19 Dry 119.7F - 84F - - - - - - 0 mhos 0 - None None - -
07/04/2015 17:11 Dry 119.7F - 84F - - - - - - 0 mhos 0 - None None - -
07/04/2015 17:05 Dry 120.0F - 84F - - - - - - 0 mhos 0 - None None - -
07/04/2015 17:01 Dry 120.0F - 84F - - - - - - 0 mhos 0 - None None - -
07/04/2015 16:51 Dry 120.2F - 84F - - - - - - 0 mhos 0 - None None - -
07/04/2015 16:50 Dry 120.2F - 84F - - - - - - 0 mhos 0 - None None - -
07/04/2015 16:41 Dry 120.9F - 84F - - - - - - 0 mhos 0 - None None - -
07/04/2015 16:35 Dry 120.7F - 84F - - - - - - 0 mhos 0 - None None - -
Date/Time
(MDT)
Sf
Temp Chem Water Layer Surface Precipitation
Sfc Pvt Sub Frz Factor Pct Dpth DpthThk IcePct Cond Salin FI Type Intens Accum Rate
07/04/2015 16:31 Dry 120.6F - 83F - - - - - - 0 mhos 0 - None None - -
07/04/2015 16:20 Dry 121.1F - 83F - - - - - - 0 mhos 0 - None None - -
07/04/2015 16:20 Dry 120.9F - 83F - - - - - - 0 mhos 0 - None None - -
07/04/2015 16:10 Dry 121.6F - 83F - - - - - - 0 mhos 0 - None None - -
07/04/2015 16:05 Dry 121.8F - 83F - - - - - - 0 mhos 0 - None None - -
07/04/2015 16:00 Dry 121.8F - 83F - - - - - - 0 mhos 0 - None None - -
07/04/2015 15:50 Dry 121.8F - 83F - - - - - - 0 mhos 0 - None None - -
07/04/2015 15:49 Dry 121.6F - 83F - - - - - - 0 mhos 0 - None None - -
07/04/2015 15:40 Dry 121.5F - 83F - - - - - - 0 mhos 0 - None None - -
07/04/2015 15:35 Dry 121.8F - 83F - - - - - - 0 mhos 0 - None None - -
07/04/2015 15:30 Dry 121.8F - 83F - - - - - - 0 mhos 0 - None None - -
07/04/2015 15:20 Dry 121.8F - 83F - - - - - - 0 mhos 0 - None None - -
07/04/2015 15:20 Dry 121.6F - 83F - - - - - - 0 mhos 0 - None None - -
07/04/2015 15:10 Dry 121.8F - 83F - - - - - - 0 mhos 0 - None None - -
07/04/2015 15:05 Dry 122.2F - 83F - - - - - - 0 mhos 0 - None None - -
Change End Date:

Copyright © 1998-2015 Vaisala, Inc.
All Rights Reserved
Send comments about the data to:
SCAN Web ® is a registered trademark of Vaisala, Inc.
SCAN Web Version 6.0